| time (UTC) | temp F | wind direction | speed knots | gust knots | rain 1hr in | rain 24hr in | rain mn in | humidity % | barometer mb |
| 20260506042741 | 28 | 309 | 0.9 | 2.6 | 0.00 | 0.00 | 0.00 | 54 | 1017.9 |
| 20260506041801 | 29 | 309 | 0.9 | 1.7 | 0.00 | 0.00 | 0.00 | 53 | 1017.9 |
| 20260506040802 | 29 | 309 | 0.0 | 1.7 | 0.00 | 0.00 | 0.00 | 51 | 1017.8 |
| 20260506035742 | 30 | 310 | 0.9 | 2.6 | 0.00 | 0.00 | 0.00 | 49 | 1017.8 |
| 20260506034747 | 31 | 309 | 2.6 | 2.6 | 0.00 | 0.00 | 0.00 | 48 | 1017.8 |
| 20260506033807 | 32 | 310 | 1.7 | 3.5 | 0.00 | 0.00 | 0.00 | 46 | 1017.8 |
| 20260506032745 | 33 | 310 | 1.7 | 4.3 | 0.00 | 0.00 | 0.00 | 45 | 1017.8 |
| 20260506031745 | 34 | 310 | 2.6 | 3.5 | 0.00 | 0.00 | 0.00 | 43 | 1017.7 |
| 20260506030746 | 35 | 310 | 3.5 | 4.3 | 0.00 | 0.00 | 0.00 | 41 | 1017.6 |
| 20260506025750 | 36 | 309 | 3.5 | 4.3 | 0.00 | 0.00 | 0.00 | 40 | 1017.4 |
| 20260506024750 | 38 | 309 | 3.5 | 4.3 | 0.00 | 0.00 | 0.00 | 38 | 1017.3 |
| 20260506023753 | 39 | 307 | 2.6 | 3.5 | 0.00 | 0.00 | 0.00 | 37 | 1017.2 |
| 20260506022752 | 40 | 307 | 3.5 | 4.3 | 0.00 | 0.00 | 0.00 | 37 | 1017.1 |
| 20260506021757 | 42 | 307 | 5.2 | 8.7 | 0.00 | 0.00 | 0.00 | 34 | 1016.9 |
| 20260506020817 | 43 | 306 | 6.1 | 9.6 | 0.00 | 0.00 | 0.00 | 32 | 1016.9 |
| 20260506015817 | 45 | 309 | 8.7 | 13.0 | 0.00 | 0.00 | 0.00 | 31 | 1016.8 |
| 20260506014816 | 45 | 317 | 11.3 | 13.9 | 0.00 | 0.00 | 0.00 | 30 | 1016.7 |
| 20260506013754 | 46 | 303 | 10.4 | 14.8 | 0.00 | 0.00 | 0.00 | 30 | 1016.6 |
| 20260506012753 | 46 | 294 | 9.6 | 14.8 | 0.00 | 0.00 | 0.00 | 29 | 1016.6 |
| 20260506011800 | 47 | 295 | 10.4 | 15.6 | 0.00 | 0.00 | 0.00 | 28 | 1016.5 |
| 20260506010801 | 47 | 296 | 13.0 | 18.2 | 0.00 | 0.00 | 0.00 | 29 | 1016.4 |
| 20260506005802 | 47 | 304 | 9.6 | 14.8 | 0.00 | 0.00 | 0.00 | 29 | 1016.4 |
| 20260506004741 | 47 | 321 | 13.9 | 19.1 | 0.00 | 0.00 | 0.00 | 28 | 1016.4 |
| 20260506003741 | 48 | 311 | 17.4 | 19.1 | 0.00 | 0.00 | 0.00 | 29 | 1016.2 |
| 20260506002749 | 47 | 305 | 10.4 | 19.1 | 0.00 | 0.00 | 0.00 | 29 | 1016.4 |
| 20260506001751 | 47 | 290 | 10.4 | 20.0 | 0.00 | 0.00 | 0.00 | 30 | 1016.1 |
| 20260506000752 | 48 | 305 | 11.3 | 20.0 | 0.00 | 0.00 | 0.00 | 29 | 1016.3 |
| 20260505235751 | 47 | 292 | 14.8 | 20.9 | 0.00 | 0.00 | 0.00 | 29 | 1016.2 |
| 20260505234759 | 48 | 289 | 14.8 | 20.9 | 0.00 | 0.00 | 0.00 | 30 | 1016.2 |
| 20260505233757 | 48 | 302 | 11.3 | 18.2 | 0.00 | 0.00 | 0.00 | 30 | 1016.2 |
| 20260505232741 | 47 | 292 | 11.3 | 17.4 | 0.00 | 0.00 | 0.00 | 29 | 1016.1 |
| 20260505231740 | 46 | 323 | 11.3 | 20.0 | 0.00 | 0.00 | 0.00 | 30 | 1016.2 |
| 20260505230745 | 47 | 300 | 11.3 | 17.4 | 0.00 | 0.00 | 0.00 | 30 | 1016.2 |
| 20260505225746 | 46 | 323 | 11.3 | 23.5 | 0.00 | 0.00 | 0.00 | 30 | 1016.3 |
| 20260505224747 | 47 | 286 | 8.7 | 20.9 | 0.00 | 0.00 | 0.00 | 30 | 1016.1 |
| 20260505223748 | 47 | 292 | 10.4 | 20.0 | 0.00 | 0.00 | 0.00 | 28 | 1016.2 |
| 20260505222748 | 48 | 315 | 14.8 | 18.2 | 0.00 | 0.00 | 0.00 | 29 | 1016.2 |
| 20260505221752 | 47 | 287 | 14.8 | 18.2 | 0.00 | 0.00 | 0.00 | 31 | 1016.2 |
| 20260505220755 | 47 | 325 | 13.9 | 20.0 | 0.00 | 0.00 | 0.00 | 32 | 1016.1 |
| 20260505215755 | 45 | 300 | 7.8 | 20.0 | 0.00 | 0.00 | 0.00 | 32 | 1016.3 |
| 20260505214755 | 46 | 303 | 14.8 | 18.2 | 0.00 | 0.00 | 0.00 | 33 | 1016.4 |
| 20260505213743 | 45 | 290 | 12.2 | 19.1 | 0.00 | 0.00 | 0.00 | 33 | 1016.4 |
| 20260505212743 | 46 | 325 | 12.2 | 20.0 | 0.00 | 0.00 | 0.00 | 33 | 1016.6 |
| 20260505211743 | 45 | 275 | 16.5 | 26.9 | 0.00 | 0.00 | 0.00 | 35 | 1016.5 |
| 20260505210744 | 45 | 298 | 13.0 | 19.1 | 0.00 | 0.00 | 0.00 | 34 | 1016.7 |
| 20260505205744 | 44 | 290 | 11.3 | 19.1 | 0.00 | 0.00 | 0.00 | 35 | 1016.7 |
| 20260505204752 | 44 | 298 | 13.0 | 17.4 | 0.00 | 0.00 | 0.00 | 36 | 1016.8 |
| 20260505203750 | 44 | 325 | 10.4 | 19.1 | 0.00 | 0.00 | 0.00 | 36 | 1016.9 |
| 20260505202752 | 44 | 297 | 11.3 | 20.0 | 0.00 | 0.00 | 0.00 | 35 | 1016.9 |
| 20260505201751 | 44 | 285 | 9.6 | 17.4 | 0.00 | 0.00 | 0.00 | 36 | 1017.0 |
| 20260505200755 | 43 | 326 | 11.3 | 18.2 | 0.00 | 0.00 | 0.00 | 38 | 1017.0 |
| 20260505195756 | 42 | 295 | 13.0 | 14.8 | 0.00 | 0.00 | 0.00 | 39 | 1017.2 |
| 20260505194756 | 43 | 279 | 6.1 | 18.2 | 0.00 | 0.00 | 0.00 | 39 | 1017.3 |
| 20260505193818 | 42 | 289 | 18.2 | 18.2 | 0.00 | 0.00 | 0.00 | 41 | 1017.3 |
| 20260505192756 | 42 | 290 | 10.4 | 20.9 | 0.00 | 0.00 | 0.00 | 40 | 1017.2 |
| 20260505191802 | 42 | 304 | 14.8 | 18.2 | 0.00 | 0.00 | 0.00 | 39 | 1017.2 |
| 20260505190740 | 41 | 301 | 12.2 | 23.5 | 0.00 | 0.00 | 0.00 | 43 | 1017.2 |
| 20260505185802 | 41 | 288 | 19.1 | 19.1 | 0.00 | 0.00 | 0.00 | 40 | 1017.2 |
| 20260505184743 | 41 | 280 | 9.6 | 20.9 | 0.00 | 0.00 | 0.00 | 41 | 1017.3 |
| 20260505183742 | 40 | 313 | 15.6 | 23.5 | 0.00 | 0.00 | 0.00 | 42 | 1017.3 |
| 20260505182751 | 40 | 286 | 13.9 | 20.0 | 0.00 | 0.00 | 0.00 | 41 | 1017.5 |
| 20260505181753 | 40 | 297 | 20.0 | 20.0 | 0.00 | 0.00 | 0.00 | 43 | 1017.4 |
| 20260505180754 | 40 | 305 | 13.0 | 21.7 | 0.00 | 0.00 | 0.00 | 42 | 1017.3 |
| 20260505175817 | 40 | 294 | 15.6 | 20.9 | 0.00 | 0.00 | 0.00 | 42 | 1017.4 |
| 20260505174741 | 40 | 313 | 21.7 | 21.7 | 0.00 | 0.00 | 0.00 | 42 | 1017.3 |
| 20260505173744 | 39 | 309 | 13.0 | 20.0 | 0.00 | 0.00 | 0.00 | 41 | 1017.3 |
| 20260505172745 | 39 | 286 | 18.2 | 22.6 | 0.00 | 0.00 | 0.00 | 42 | 1017.4 |
| 20260505171806 | 38 | 302 | 15.6 | 25.2 | 0.00 | 0.00 | 0.00 | 43 | 1017.4 |
| 20260505170745 | 39 | 297 | 17.4 | 22.6 | 0.00 | 0.00 | 0.00 | 43 | 1017.4 |
| 20260505165746 | 39 | 285 | 14.8 | 23.5 | 0.00 | 0.00 | 0.00 | 44 | 1017.5 |
| 20260505164750 | 38 | 288 | 13.9 | 23.5 | 0.00 | 0.00 | 0.00 | 44 | 1017.5 |
| 20260505163811 | 38 | 291 | 13.9 | 22.6 | 0.00 | 0.00 | 0.00 | 45 | 1017.4 |
| 20260505162749 | 37 | 292 | 14.8 | 21.7 | 0.00 | 0.00 | 0.00 | 46 | 1017.4 |
| 20260505161815 | 37 | 294 | 13.0 | 23.5 | 0.00 | 0.00 | 0.00 | 46 | 1017.3 |
| 20260505160818 | 37 | 302 | 13.0 | 21.7 | 0.00 | 0.00 | 0.00 | 47 | 1017.2 |
| 20260505152740 | 36 | 300 | 18.2 | 21.7 | 0.00 | 0.00 | 0.00 | 49 | 1017.1 |
| 20260505151802 | 36 | 300 | 12.2 | 18.2 | 0.00 | 0.00 | 0.00 | 49 | 1017.9 |
| 20260505150745 | 37 | 290 | 13.0 | 18.2 | 0.00 | 0.00 | 0.00 | 51 | 1018.0 |
| 20260505124749 | 30 | 291 | 8.7 | 10.4 | 0.00 | 0.00 | 0.00 | 69 | 1017.0 |
| 20260505123751 | 29 | 293 | 8.7 | 10.4 | 0.00 | 0.00 | 0.00 | 70 | 1017.0 |
| 20260505122751 | 29 | 291 | 8.7 | 9.6 | 0.00 | 0.00 | 0.00 | 71 | 1016.9 |
| 20260505121752 | 28 | 285 | 7.8 | 10.4 | 0.00 | 0.00 | 0.00 | 71 | 1016.8 |
| 20260505120813 | 27 | 290 | 8.7 | 10.4 | 0.00 | 0.00 | 0.00 | 73 | 1016.6 |
| 20260505115756 | 27 | 282 | 7.8 | 9.6 | 0.00 | 0.00 | 0.00 | 73 | 1016.5 |
| 20260505114739 | 27 | 289 | 8.7 | 10.4 | 0.00 | 0.00 | 0.00 | 73 | 1016.5 |
| 20260505113741 | 27 | 289 | 9.6 | 10.4 | 0.00 | 0.00 | 0.00 | 73 | 1016.4 |
| 20260505112742 | 27 | 290 | 8.7 | 8.7 | 0.00 | 0.00 | 0.00 | 73 | 1016.3 |
| 20260505111747 | 27 | 293 | 5.2 | 9.6 | 0.00 | 0.00 | 0.00 | 72 | 1016.2 |
| 20260505110746 | 28 | 292 | 7.8 | 10.4 | 0.00 | 0.00 | 0.00 | 72 | 1016.2 |
| 20260505101753 | 30 | 279 | 6.1 | 8.7 | 0.00 | 0.00 | 0.00 | 69 | 1016.0 |
| 20260505100758 | 30 | 284 | 5.2 | 8.7 | 0.00 | 0.00 | 0.00 | 68 | 1016.0 |
| 20260505095742 | 30 | 290 | 7.0 | 8.7 | 0.00 | 0.00 | 0.00 | 69 | 1015.7 |
| 20260505094741 | 28 | 293 | 6.1 | 6.1 | 0.00 | 0.00 | 0.00 | 72 | 1015.7 |
| 20260505093800 | 29 | 292 | 3.5 | 5.2 | 0.00 | 0.00 | 0.00 | 70 | 1015.6 |
| 20260505092741 | 30 | 292 | 3.5 | 7.8 | 0.00 | 0.00 | 0.00 | 69 | 1015.5 |
| 20260505091800 | 31 | 282 | 4.3 | 6.1 | 0.00 | 0.00 | 0.00 | 67 | 1015.5 |
| 20260505090801 | 32 | 273 | 5.2 | 8.7 | 0.00 | 0.00 | 0.00 | 67 | 1015.5 |
| 20260505085746 | 32 | 278 | 5.2 | 8.7 | 0.00 | 0.00 | 0.00 | 65 | 1015.4 |
| 20260505084808 | 33 | 277 | 4.3 | 6.1 | 0.00 | 0.00 | 0.00 | 64 | 1015.2 |
| 20260505083745 | 33 | 270 | 4.3 | 6.1 | 0.00 | 0.00 | 0.00 | 64 | 1015.3 |
| 20260505082747 | 33 | 266 | 4.3 | 5.2 | 0.00 | 0.00 | 0.00 | 65 | 1015.2 |
| 20260505081746 | 32 | 266 | 4.3 | 6.1 | 0.00 | 0.00 | 0.00 | 65 | 1015.2 |
| 20260505080753 | 31 | 289 | 4.3 | 5.2 | 0.00 | 0.00 | 0.00 | 67 | 1015.1 |
| 20260505075754 | 30 | 305 | 2.6 | 3.5 | 0.00 | 0.00 | 0.00 | 67 | 1015.1 |
| 20260505074814 | 31 | 305 | 2.6 | 4.3 | 0.00 | 0.00 | 0.00 | 65 | 1014.9 |
| 20260505073752 | 33 | 304 | 1.7 | 2.6 | 0.00 | 0.00 | 0.00 | 63 | 1014.9 |
| 20260505072812 | 34 | 304 | 0.0 | 1.7 | 0.00 | 0.00 | 0.00 | 62 | 1014.8 |
| 20260505071759 | 35 | 304 | 0.0 | 0.0 | 0.00 | 0.00 | 0.00 | 61 | 1014.8 |
| 20260505070739 | 35 | 304 | 0.0 | 1.7 | 0.00 | 0.00 | 0.00 | 61 | 1014.9 |
| 20260505065742 | 35 | 304 | 0.0 | 1.7 | 0.00 | 0.00 | 0.00 | 60 | 1014.8 |
| 20260505064746 | 36 | 304 | 0.0 | 2.6 | 0.00 | 0.00 | 0.00 | 60 | 1014.8 |
| 20260505063745 | 36 | 304 | 1.7 | 5.2 | 0.00 | 0.00 | 0.00 | 59 | 1014.8 |
| 20260505062753 | 36 | 306 | 4.3 | 5.2 | 0.00 | 0.00 | 0.00 | 59 | 1015.5 |
| 20260505061754 | 36 | 317 | 2.6 | 5.2 | 0.00 | 0.00 | 0.00 | 59 | 1015.4 |
| 20260505060756 | 34 | 323 | 2.6 | 4.3 | 0.00 | 0.00 | 0.00 | 61 | 1015.4 |
| 20260505055756 | 33 | 323 | 3.5 | 4.3 | 0.00 | 0.00 | 0.00 | 62 | 1015.3 |
| 20260505054744 | 33 | 323 | 2.6 | 4.3 | 0.00 | 0.00 | 0.00 | 61 | 1015.2 |
| 20260505053745 | 34 | 323 | 2.6 | 3.5 | 0.00 | 0.00 | 0.00 | 63 | 1015.1 |
| 20260505052745 | 34 | 323 | 3.5 | 3.5 | 0.00 | 0.00 | 0.00 | 58 | 1015.0 |
| 20260505051748 | 34 | 323 | 2.6 | 3.5 | 0.00 | 0.00 | 0.00 | 58 | 1015.0 |
| 20260505050752 | 35 | 323 | 2.6 | 3.5 | 0.00 | 0.00 | 0.00 | 58 | 1014.9 |